SCP
0 0 0 0 0 0 0 0 0 0 0 0 0 0 0 0 0 0 0 0 0 0 0 0 0 0 0 0 0 0 0 0 0 0 0 0 0 0
0 0 0 0 0 0 0 0 0 0 0 0 0 0 0 0 0 0 0 0 0 0 0 0 0 0 0 0 0 0 0 0 0 0 0 0 0 0
0 0 0 0 0 0 0 0 0 0 0 0 0 0 0 0 0 0 0 0 0 0 0 0 0 0 0 0 0 0 0 0 0 0 0 0 0 0
0 0 0 0 0 0 0 0 0 0 0 0 0 0 0 0 0 0 0 0 0 0 0 0 0 0 0 0 0 0 0 0 0 0 0 0 0 0
0 0 0 0 0 0 0 0 0 0 0 0 0 0 0 0 0 0 0 0 0 0 0 0 0 0 0 0 0 0 0 0 0 0 0 0 0 0
0 0 0 0 0 0 0 0 0 0 0 0 0 0 0 0 0 0 0 0 0 0 0 0 0 0 0 0 0 0 0 0 0 0 0 0 0 0
0 0 0 0 0 0 0 0 0 0 0 0 0 0 0 0 0 0 0 0 0 0 0 0 0 0 0 0 0 0 0 0 0 0 0 0 0 0
0 0 0 0 0 0 0 0 0 0 0 0 0 0 0 0 0 0 0 0 0 0 0 0 0 0 0 0 0 0 0 0 0 0 0 0 0 0
0 0 0 0 0 0 0 0 0 0 0 0 0 0 0 0 0 0 0 0 0 0 0 0 0 0 0 0 0 0 0 0 0 0 0 0 0 0
0 0 0 0 0 0 0 0 0 0 0 0 0 0 0 0 0 0 0 0 0 0 0 0 0 0 0 0 0 0 0 0 0 0 0 0 0 0
0 0 0 0 0 0 0 0 0 0 0 0 0 0 0 0 0 0 0 0 0 0 0 0 0 0 0 0 0 0 0 0 0 0 0 0 0 0
0 0 0 0 0 0 0 0 0 0 0 0 0 0 0 0 0 0 0 0 0 0 0 0 0 0 0 0 0 0 0 0 0 0 0 0 0 0
0 0 0 0 0 0 0 0 0 0 0 0 0 0 0 0 0 0 0 0 0 0 0 0 0 0 0 0 0 0 0 0 0 0 0 0 0 0
0 0 0 0 0 0 0 0 0 0 0 0 0 0 0 0 0 0 0 0 0 0 0 0 0 0 0 0 0 0 0 0 0 0 0 0 0 0
0 0 0 0 0 0 0 0 0 0 0 0 0 0 0 0 0 0 0 0 0 0 0 0 0 0 0 0 0 0 0 0 0 0 0 0 0 0
0 0 0 0 0 0 0 0 0 0 0 0 0 0 0 0 0 0 0 0 0 0 0 0 0 0 0 0 0 0 0 0 0 0 0 0 0 0
0 0 0 0 0 0 0 0 0 0 0 0 0 0 0 0 0 0 0 0 0 0 0 0 0 0 0 0 0 0 0 0 0 0 0 0 0 0
0 0 0 0 0 0 0 0 0 0 0 0 0 0 0 0 0 0 0 0 0 0 0 0 0 0 0 0 0 0 0 0 0 0 0 0 0 0
0 0 0 0 0 0 0 0 0 0 0 0 0 0 0 0 0 0 0 0 0 0 0 0 0 0 0 0 0 0 0 0 0 0 0 0 0 0
0 0 0 0 0 0 0 0 0 0 0 0 0 0 0 0 0 0 0 0 0 0 0 0 0 0 0 0 0 0 0 0 0 0 0 0 0 0
0 0 0 0 0 0 0 0 0 0 0 0 0 0 0 0 0 0 0 0 0 0 0 0 0 0 0 0 0 0 0 0 0 0 0 0 0 0
0 0 0 0 0 0 0 0 0 0 0 0 0 0 0 0 0 0 0 0 0 0 0 0 0 0 0 0 0 0 0 0 0 0 0 0 0 0
0 0 0 0 0 0 0 0 0 0 0 0 0 0 0 0 0 0 0 0 0 0 0 0 0 0 0 0 0 0 0 0 0 0 0 0 0 0
Wind_Speed
7 7 5 3 2 1 1 3 5 4 4 3 3 5 4 5 9 6 6 9 9 7 6 6 6 6 7 7 8 8 8 8 9 10 11 11 11 10
5 6 4 2 2 1 1 0 2 4 4 4 4 5 6 7 9 4 7 13 10 8 6 5 4 4 5 5 6 7 7 7 7 8 9 10 11 11
4 4 3 2 0 1 1 1 1 1 3 3 3 4 6 7 5 4 6 6 5 9 8 5 4 2 3 4 5 6 6 6 6 6 8 9 10 10
5 5 5 4 3 1 1 1 2 1 2 3 3 3 5 7 7 6 6 7 6 11 10 8 5 3 1 2 3 4 4 5 6 6 7 8 9 9
6 6 6 6 4 1 0 1 1 3 2 2 3 3 3 6 7 6 5 4 8 9 11 9 7 6 4 2 1 2 3 4 6 7 7 8 8 8
5 6 6 6 5 4 2 2 2 2 3 2 3 2 3 3 6 5 4 3 4 7 7 8 9 8 7 5 3 2 3 4 6 7 7 7 7 7
6 6 7 8 10 8 5 4 3 3 3 3 4 3 3 3 5 5 5 4 4 4 4 5 5 4 5 7 7 6 5 5 6 6 6 6 6 6
7 8 9 11 13 15 14 11 8 6 5 4 4 5 7 6 4 4 5 4 4 5 6 5 6 5 6 5 9 10 9 7 6 6 6 6 6 5
7 7 7 8 12 9 13 15 13 14 13 7 6 7 7 7 7 7 6 7 5 4 5 5 5 6 5 9 17 14 12 10 8 7 6 5 5 4
5 5 6 6 8 9 7 7 8 8 9 9 7 6 6 6 8 10 8 6 4 3 5 4 4 4 3 5 17 16 13 11 10 8 7 6 5 4
5 4 3 2 4 8 5 5 5 4 3 4 4 3 2 3 4 5 6 5 4 3 4 4 4 4 4 4 9 15 13 12 11 10 9 7 6 5
3 1 2 3 4 4 3 3 4 3 3 3 3 3 3 4 5 5 6 5 4 4 5 4 3 4 3 3 5 6 7 10 11 11 10 9 8 4
2 1 2 5 5 3 1 1 2 2 2 4 3 3 3 3 3 3 3 4 4 3 5 6 4 4 5 3 3 5 6 5 6 6 9 11 11 8
2 1 3 5 4 2 1 2 2 1 1 1 1 2 2 2 2 3 2 1 1 2 3 5 3 4 4 4 3 4 6 6 6 6 6 10 11 12
1 3 5 5 4 2 3 3 2 1 1 1 1 2 2 2 2 1 1 0 1 1 0 1 2 2 3 4 4 4 4 5 7 7 7 7 7 5
2 3 4 3 1 1 3 2 2 1 1 1 1 1 1 1 2 2 2 1 1 1 1 1 1 0 2 3 2 4 5 5 5 7 7 6 7 7
2 2 2 2 2 2 2 2 2 2 1 1 1 1 1 1 1 2 2 2 2 2 1 0 1 1 1 1 2 3 4 4 4 6 6 5 6 8
2 1 2 2 2 2 2 2 1 1 1 1 1 1 2 2 2 2 2 3 3 3 3 3 2 1 1 3 4 4 3 4 4 6 6 5 5 5
1 0 1 1 0 0 0 0 0 1 1 1 1 1 2 2 2 2 3 3 4 4 4 3 4 4 4 5 5 8 6 4 3 5 6 6 6 5
2 2 2 2 2 2 2 1 1 1 0 1 1 2 2 2 2 3 3 4 4 4 4 4 5 6 7 5 3 3 10 7 5 5 5 5 4 3
3 3 3 3 2 2 2 2 2 1 1 1 1 2 2 2 2 3 3 4 4 3 4 4 5 8 4 2 3 4 3 7 5 3 4 5 4 4
3 3 3 3 3 3 3 3 2 2 2 2 2 2 2 2 2 3 2 2 3 3 4 2 1 2 3 5 7 6 4 2 3 3 2 2 3 5
3 2 2 3 3 3 2 3 3 2 2 2 2 2 2 2 2 2 2 2 2 3 2 2 1 2 3 4 5 5 5 3 3 3 2 4 7 9
Wind_Direction
199 207 222 246 267 260 149 142 149 172 215 216 160 176 159 132 164 173 157 162 148 134 116 95 76 62 52 44 38 34 34 43 55 57 56 55 54 57
182 187 197 215 264 293 320 87 147 165 198 213 192 170 159 154 182 192 153 162 158 153 143 125 98 73 56 45 34 27 27 40 58 69 66 63 60 61
172 167 162 139 180 299 335 339 306 163 200 227 210 173 153 155 153 152 155 166 168 169 165 155 135 100 64 45 34 27 28 39 63 78 79 74 68 65
158 147 139 124 100 38 0 319 294 277 220 222 213 187 169 165 161 183 180 184 165 180 179 177 174 168 134 60 36 30 35 49 67 76 82 82 74 70
154 150 147 138 127 132 260 285 294 296 277 226 216 203 187 171 162 190 195 177 167 175 183 187 189 191 190 175 76 51 62 79 83 76 72 76 74 73
168 169 171 170 167 181 209 237 256 279 283 257 225 209 215 183 164 177 195 192 170 172 185 181 191 196 200 198 184 146 117 112 106 94 83 75 72 77
193 194 196 198 200 202 209 215 224 239 260 253 235 206 207 196 191 180 185 185 202 177 164 175 174 189 200 209 198 178 155 141 128 115 102 90 81 78
204 207 209 211 220 222 227 229 224 229 237 239 233 218 211 207 201 189 177 174 210 198 170 189 177 195 199 196 191 180 170 160 150 139 128 114 101 93
213 212 216 214 212 216 226 233 239 242 239 237 242 233 218 203 199 203 198 195 204 191 164 196 185 198 194 188 178 180 177 172 169 163 154 143 132 122
240 224 215 217 203 201 209 216 222 229 230 225 230 234 226 209 203 205 202 203 216 180 155 184 182 188 151 152 175 179 180 178 178 178 175 171 168 168
258 246 230 216 194 191 196 218 229 235 218 201 202 188 187 209 192 174 180 178 192 198 186 180 174 167 153 164 188 186 183 183 186 189 190 189 194 196
274 272 112 106 101 155 194 213 221 220 179 168 184 187 202 207 188 176 177 184 185 188 187 181 176 145 178 176 171 183 188 194 195 199 200 200 200 197
339 3 96 119 129 149 174 208 189 184 182 180 186 196 202 195 196 208 189 181 189 208 183 175 184 162 169 167 162 178 184 184 191 209 211 209 207 199
335 14 111 129 139 159 156 143 138 147 148 153 178 196 202 205 204 215 213 163 193 217 203 173 185 171 164 156 183 178 188 191 185 196 203 211 217 220
32 91 132 141 144 162 163 152 172 197 154 165 209 221 213 194 168 176 179 93 9 5 44 183 182 175 167 186 182 169 175 196 193 193 197 197 200 202
166 121 127 127 278 282 160 197 228 212 159 198 215 199 154 150 163 164 163 154 182 285 344 7 12 185 220 233 205 185 179 188 191 192 190 194 194 198
150 142 163 171 216 224 201 202 196 157 171 233 201 190 190 190 189 167 161 158 182 201 210 239 39 41 321 264 250 233 196 198 189 184 187 201 203 199
105 194 224 221 222 222 212 209 200 206 209 209 216 214 217 219 207 186 183 192 208 219 214 196 170 118 345 282 231 245 241 214 198 183 183 199 226 222
75 287 273 284 345 24 76 110 232 219 193 197 219 232 230 234 224 212 203 206 217 222 218 190 175 182 212 242 250 211 220 235 209 189 191 194 212 221
39 43 45 46 48 38 33 27 7 349 277 255 256 251 241 238 243 239 223 217 221 221 219 200 194 200 215 230 237 238 212 215 214 211 202 200 211 192
41 41 38 37 34 28 24 17 5 350 331 305 288 280 267 256 257 254 248 241 232 225 230 228 224 217 221 224 252 252 241 216 210 204 194 188 194 198
43 40 35 33 33 28 20 14 8 4 358 350 336 326 312 294 283 284 277 260 237 231 239 243 201 173 192 224 245 253 244 214 192 158 65 94 160 193
47 41 36 29 24 12 5 3 3 353 347 338 330 322 315 303 292 284 281 276 264 249 243 236 209 203 218 233 251 255 244 210 176 170 142 104 99 91